When you browse on this site, cookies collect data to enhance your experience and personalize the content and advertising you see.
Visit our Privacy Policy to learn more. By continuing to use the site, you agree to this use of cookies and data.
  • In Latvia
  • List of Countries
  • For 7 days
  • Water Temperature
  • Weather Map
  • Weather Widgets
  • user-avatar
    Login

    Hourly Weather Alekseevka

    Today, 25 August, Sunday

    Time Temperature Precipitation Wind Pressure Humidity
    00:00 +16°C° 0 mm 1 mps 751 mmHg 62%
    01:00 +16°C° 0 mm 1 mps 751 mmHg 64%
    02:00 +15°C° 0 mm 1 mps 751 mmHg 65%
    03:00 +15°C° 0 mm 1 mps 751 mmHg 67%
    04:00 +15°C° 0 mm 1 mps 751 mmHg 69%
    05:00 +15°C° 0 mm 2 mps 751 mmHg 70%
    06:00 +15°C° 0 mm 2 mps 751 mmHg 71%
    07:00 +17°C° 0 mm 2 mps 751 mmHg 66%
    08:00 +20°C° 0 mm 3 mps 751 mmHg 60%
    09:00 +22°C° 0 mm 3 mps 751 mmHg 53%
    10:00 +23°C° 0 mm 4 mps 751 mmHg 51%
    11:00 +23°C° 0 mm 4 mps 751 mmHg 49%
    12:00 +25°C° 0 mm 5 mps 751 mmHg 47%
    13:00 +25°C° 0 mm 5 mps 751 mmHg 49%
    14:00 +25°C° 0 mm 5 mps 751 mmHg 51%
    15:00 +24°C° 0 mm 6 mps 751 mmHg 52%
    16:00 +23°C° 0 mm 5 mps 751 mmHg 56%
    17:00 +22°C° 0 mm 5 mps 751 mmHg 59%
    18:00 +21°C° 0 mm 4 mps 751 mmHg 62%
    19:00 +19°C° 0 mm 5 mps 752 mmHg 67%
    20:00 +16°C° 0 mm 5 mps 753 mmHg 71%
    21:00 +15°C° 0 mm 6 mps 753 mmHg 75%
    22:00 +14°C° 0 mm 5 mps 753 mmHg 78%
    23:00 +13°C° 0 mm 5 mps 753 mmHg 80%

    Tomorrow, 26 August, Monday

    Time Temperature Precipitation Wind Pressure Humidity
    00:00 +12°C° 0 mm 4 mps 753 mmHg 82%
    01:00 +12°C° 0 mm 4 mps 754 mmHg 86%
    02:00 +12°C° 0 mm 4 mps 754 mmHg 89%
    03:00 +11°C° 0 mm 4 mps 755 mmHg 93%
    04:00 +11°C° 0 mm 3 mps 755 mmHg 92%
    05:00 +11°C° 0 mm 3 mps 755 mmHg 91%
    06:00 +11°C° 0 mm 3 mps 755 mmHg 91%
    07:00 +13°C° 0 mm 3 mps 755 mmHg 81%
    08:00 +15°C° 0 mm 4 mps 756 mmHg 72%
    09:00 +18°C° 0 mm 4 mps 756 mmHg 63%
    10:00 +19°C° 0 mm 4 mps 756 mmHg 56%
    11:00 +20°C° 0 mm 4 mps 756 mmHg 50%
    12:00 +21°C° 0 mm 4 mps 755 mmHg 43%
    13:00 +21°C° 0 mm 3 mps 755 mmHg 42%
    14:00 +22°C° 0 mm 3 mps 755 mmHg 41%
    15:00 +22°C° 0 mm 3 mps 755 mmHg 39%
    16:00 +21°C° 0 mm 2 mps 755 mmHg 44%
    17:00 +20°C° 0 mm 2 mps 754 mmHg 50%
    18:00 +19°C° 0 mm 2 mps 754 mmHg 55%
    19:00 +18°C° 0 mm 1 mps 754 mmHg 59%
    20:00 +16°C° 0 mm 1 mps 754 mmHg 63%
    21:00 +14°C° 0 mm 1 mps 754 mmHg 67%
    22:00 +14°C° 0 mm 1 mps 754 mmHg 69%
    23:00 +13°C° 0 mm 1 mps 754 mmHg 71%

    Day after tomorrow, 27 August, Tuesday

    Time Temperature Precipitation Wind Pressure Humidity
    00:00 +12°C° 0 mm 0 mps 753 mmHg 73%
    01:00 +13°C° 0 mm 1 mps 753 mmHg 73%
    02:00 +13°C° 0 mm 1 mps 753 mmHg 74%
    03:00 +12°C° 0 mm 1 mps 752 mmHg 75%
    04:00 +13°C° 0 mm 2 mps 752 mmHg 74%
    05:00 +13°C° 0 mm 2 mps 751 mmHg 74%
    06:00 +13°C° 0 mm 2 mps 751 mmHg 73%
    07:00 +14°C° 0 mm 3 mps 751 mmHg 68%
    08:00 +15°C° 0 mm 4 mps 750 mmHg 63%
    09:00 +17°C° 0 mm 5 mps 750 mmHg 57%
    10:00 +19°C° 0 mm 5 mps 749 mmHg 56%
    11:00 +19°C° 0 mm 6 mps 749 mmHg 56%
    12:00 +20°C° 0 mm 6 mps 748 mmHg 55%
    13:00 +20°C° 0.1 mm 6 mps 748 mmHg 56%
    14:00 +21°C° 0.1 mm 6 mps 747 mmHg 58%
    15:00 +21°C° 0.1 mm 7 mps 746 mmHg 60%
    16:00 +20°C° 0.5 mm 6 mps 746 mmHg 65%
    17:00 +19°C° 0.5 mm 6 mps 745 mmHg 70%
    18:00 +19°C° 0.5 mm 5 mps 744 mmHg 74%
    19:00 +16°C° 0.6 mm 5 mps 744 mmHg 80%
    20:00 +15°C° 0.6 mm 4 mps 744 mmHg 85%
    21:00 +14°C° 0.6 mm 4 mps 744 mmHg 90%
    22:00 +13°C° 0 mm 4 mps 744 mmHg 90%
    23:00 +13°C° 0 mm 4 mps 744 mmHg 89%

    28 August, Wednesday

    Time Temperature Precipitation Wind Pressure Humidity
    00:00 +13°C° 0 mm 4 mps 744 mmHg 89%
    01:00 +12°C° 0 mm 5 mps 743 mmHg 89%
    02:00 +12°C° 0 mm 5 mps 743 mmHg 88%
    03:00 +10°C° 0 mm 5 mps 743 mmHg 88%
    04:00 +10°C° 0 mm 5 mps 743 mmHg 88%
    05:00 +9°C° 0 mm 6 mps 744 mmHg 87%
    06:00 +8°C° 0 mm 6 mps 744 mmHg 87%
    07:00 +9°C° 0 mm 7 mps 744 mmHg 81%
    08:00 +9°C° 0 mm 8 mps 744 mmHg 74%
    09:00 +8°C° 0 mm 9 mps 745 mmHg 67%
    10:00 +8°C° 0 mm 9 mps 745 mmHg 63%
    11:00 +10°C° 0 mm 8 mps 745 mmHg 59%
    12:00 +11°C° 0 mm 8 mps 746 mmHg 54%
    13:00 +11°C° 0 mm 8 mps 746 mmHg 56%
    14:00 +12°C° 0 mm 9 mps 746 mmHg 58%
    15:00 +12°C° 0 mm 9 mps 746 mmHg 60%
    16:00 +12°C° 0 mm 9 mps 746 mmHg 62%
    17:00 +11°C° 0 mm 8 mps 747 mmHg 65%
    18:00 +11°C° 0 mm 8 mps 747 mmHg 67%
    19:00 +11°C° 0 mm 8 mps 747 mmHg 67%
    20:00 +10°C° 0 mm 8 mps 747 mmHg 67%
    21:00 +10°C° 0 mm 8 mps 747 mmHg 67%
    22:00 +10°C° 0 mm 8 mps 747 mmHg 67%
    23:00 +9°C° 0 mm 8 mps 748 mmHg 68%

    29 August, Thursday

    Time Temperature Precipitation Wind Pressure Humidity
    00:00 +9°C° 0 mm 8 mps 748 mmHg 69%
    01:00 +9°C° 0 mm 8 mps 748 mmHg 70%
    02:00 +7°C° 0 mm 8 mps 748 mmHg 72%
    03:00 +6°C° 0 mm 8 mps 748 mmHg 74%
    04:00 +6°C° 0 mm 8 mps 748 mmHg 74%
    05:00 +6°C° 0 mm 7 mps 748 mmHg 74%
    06:00 +6°C° 0 mm 7 mps 749 mmHg 75%
    07:00 +7°C° 0 mm 8 mps 749 mmHg 72%
    08:00 +7°C° 0 mm 8 mps 749 mmHg 68%
    09:00 +9°C° 0 mm 8 mps 750 mmHg 65%
    10:00 +10°C° 0 mm 8 mps 750 mmHg 61%
    11:00 +11°C° 0 mm 8 mps 750 mmHg 58%
    12:00 +12°C° 0 mm 7 mps 750 mmHg 54%
    13:00 +13°C° 0 mm 8 mps 750 mmHg 51%
    14:00 +13°C° 0 mm 8 mps 750 mmHg 48%
    15:00 +15°C° 0 mm 8 mps 750 mmHg 46%
    16:00 +14°C° 0 mm 7 mps 750 mmHg 49%
    17:00 +13°C° 0 mm 6 mps 750 mmHg 53%
    18:00 +12°C° 0 mm 5 mps 750 mmHg 56%
    19:00 +10°C° 0 mm 5 mps 751 mmHg 60%
    20:00 +8°C° 0 mm 4 mps 751 mmHg 64%
    21:00 +7°C° 0 mm 4 mps 751 mmHg 68%
    22:00 +7°C° 0 mm 4 mps 751 mmHg 72%
    23:00 +6°C° 0 mm 4 mps 751 mmHg 75%

    30 August, Friday

    Time Temperature Precipitation Wind Pressure Humidity
    00:00 +5°C° 0 mm 4 mps 751 mmHg 78%
    01:00 +5°C° 0 mm 4 mps 751 mmHg 80%
    02:00 +4°C° 0 mm 4 mps 751 mmHg 82%
    03:00 +4°C° 0 mm 3 mps 751 mmHg 84%
    04:00 +4°C° 0 mm 4 mps 751 mmHg 83%
    05:00 +4°C° 0 mm 4 mps 751 mmHg 81%
    06:00 +4°C° 0 mm 4 mps 752 mmHg 80%
    07:00 +6°C° 0 mm 5 mps 752 mmHg 73%
    08:00 +8°C° 0 mm 5 mps 752 mmHg 66%
    09:00 +10°C° 0 mm 6 mps 752 mmHg 58%
    10:00 +11°C° 0 mm 6 mps 752 mmHg 56%
    11:00 +13°C° 0 mm 5 mps 752 mmHg 53%
    12:00 +14°C° 0 mm 5 mps 752 mmHg 50%
    13:00 +14°C° 0 mm 5 mps 752 mmHg 51%
    14:00 +14°C° 0 mm 5 mps 752 mmHg 52%
    15:00 +14°C° 0 mm 5 mps 752 mmHg 53%
    16:00 +13°C° 0.1 mm 5 mps 752 mmHg 60%
    17:00 +12°C° 0.1 mm 5 mps 752 mmHg 66%
    18:00 +10°C° 0.1 mm 5 mps 752 mmHg 73%
    19:00 +9°C° 0 mm 5 mps 753 mmHg 76%
    20:00 +8°C° 0 mm 5 mps 753 mmHg 79%
    21:00 +8°C° 0 mm 4 mps 753 mmHg 82%
    22:00 +7°C° 0 mm 4 mps 753 mmHg 82%
    23:00 +7°C° 0 mm 5 mps 753 mmHg 82%
    Show more